Location: Unspecified
(41.1850°N, 73.2650°W)
Time: 03:07:05
(UTC+00:00)

SL-08 R/B - Pass Details

Date: 14 March 2026
Orbit: 946 x 992 km, 83.0° (Epoch: 13 April)

Event Time Altitude Azimuth Distance (km) Brightness Sun altitude
Exits shadow 02:03:43 32° 6° (N) 1,563 5.7 -34.4°
Drops below altitude 10° 02:06:50 10° 7° (N) 2,675 7.0 -34.9°
Sets 02:09:19 0° 8° (N) 3,623 7.8 -35.2°
